Temp
-25 -25 -25 -25 -25 -26 -26 -26 -26 -26 -26 -26 -26 -27 -27 -27 -27 -27 -27 -27 -27 -27 -27 -27 -27 -27 -27 -27 -27 -27 -27 -27 -27 -27 -27 -27 -27 -27 -27 -27 -27 -27
-25 -25 -26 -26 -26 -26 -26 -26 -26 -26 -27 -27 -27 -27 -27 -27 -27 -27 -27 -27 -27 -27 -27 -27 -27 -27 -27 -27 -27 -27 -27 -27 -27 -27 -27 -28 -28 -28 -28 -28 -28 -28
-26 -26 -26 -26 -26 -26 -26 -26 -27 -27 -27 -27 -27 -27 -27 -27 -27 -27 -27 -27 -27 -27 -27 -27 -27 -27 -27 -27 -27 -27 -27 -28 -28 -28 -28 -28 -28 -28 -28 -28 -28 -28
-26 -26 -26 -26 -26 -27 -27 -27 -27 -27 -27 -27 -27 -27 -27 -27 -27 -27 -27 -27 -27 -27 -27 -28 -28 -28 -28 -28 -28 -28 -28 -28 -28 -28 -28 -28 -28 -28 -28 -29 -29 -29
-26 -26 -27 -27 -27 -27 -27 -27 -27 -27 -27 -27 -27 -27 -27 -27 -27 -27 -27 -27 -27 -28 -28 -28 -28 -28 -28 -28 -28 -28 -28 -28 -28 -28 -28 -28 -29 -29 -29 -29 -29 -29
-27 -27 -27 -27 -27 -27 -27 -27 -27 -27 -27 -27 -27 -27 -27 -27 -27 -27 -27 -27 -28 -28 -28 -28 -28 -28 -28 -28 -28 -28 -29 -29 -29 -29 -29 -29 -29 -29 -29 -29 -29 -30
-27 -27 -27 -27 -27 -27 -27 -27 -27 -27 -27 -27 -27 -27 -28 -27 -27 -28 -28 -28 -28 -28 -28 -28 -28 -28 -28 -29 -29 -29 -29 -29 -29 -29 -29 -29 -29 -30 -30 -30 -30 -30
-27 -27 -27 -27 -27 -27 -27 -28 -28 -28 -27 -27 -27 -28 -28 -28 -28 -28 -28 -28 -28 -28 -28 -28 -28 -29 -29 -29 -29 -29 -29 -29 -29 -30 -30 -30 -30 -30 -30 -30 -30 -31
-27 -27 -27 -27 -27 -27 -27 -28 -28 -27 -27 -27 -27 -28 -28 -28 -28 -28 -28 -28 -28 -28 -29 -29 -29 -29 -29 -29 -29 -30 -30 -30 -30 -30 -30 -30 -30 -30 -31 -31 -31 -31
-27 -27 -27 -27 -27 -27 -28 -28 -28 -27 -27 -27 -28 -28 -28 -28 -28 -28 -28 -29 -29 -29 -29 -29 -29 -29 -30 -30 -30 -30 -30 -30 -30 -30 -31 -31 -31 -31 -31 -31 -31 -32
-27 -27 -27 -27 -28 -28 -28 -28 -28 -27 -27 -28 -28 -28 -28 -28 -28 -29 -29 -29 -29 -29 -29 -30 -30 -30 -30 -30 -30 -30 -31 -31 -31 -31 -31 -31 -31 -31 -31 -32 -32 -32
-27 -27 -28 -28 -28 -28 -28 -28 -28 -28 -28 -28 -28 -28 -28 -29 -29 -29 -29 -29 -30 -30 -30 -30 -30 -30 -30 -31 -31 -31 -31 -31 -31 -31 -31 -31 -32 -32 -32 -32 -32 -32
-28 -28 -28 -28 -28 -28 -28 -28 -28 -28 -28 -29 -29 -29 -29 -29 -29 -29 -30 -30 -30 -30 -30 -30 -31 -31 -31 -31 -31 -31 -32 -32 -32 -32 -32 -32 -32 -32 -32 -32 -33 -33
-28 -28 -28 -28 -28 -28 -28 -28 -28 -29 -29 -29 -29 -29 -29 -29 -30 -30 -30 -30 -30 -30 -31 -31 -31 -31 -31 -32 -32 -32 -32 -32 -32 -32 -32 -32 -32 -32 -33 -33 -33 -33
-28 -28 -28 -28 -28 -28 -29 -29 -29 -29 -29 -29 -29 -30 -30 -30 -30 -30 -31 -31 -31 -31 -31 -31 -31 -32 -32 -32 -32 -32 -32 -32 -32 -32 -32 -32 -32 -33 -33 -33 -33 -33
-28 -28 -28 -29 -29 -29 -29 -29 -29 -29 -30 -30 -30 -30 -30 -31 -31 -31 -31 -31 -31 -31 -32 -32 -32 -32 -32 -32 -32 -32 -32 -32 -32 -32 -32 -33 -33 -33 -33 -33 -34 -34
-29 -29 -29 -29 -29 -29 -29 -29 -30 -30 -30 -30 -30 -31 -31 -31 -31 -31 -31 -31 -32 -32 -32 -32 -32 -32 -32 -32 -32 -32 -32 -32 -32 -33 -33 -33 -33 -33 -34 -34 -34 -34
-29 -29 -29 -29 -29 -30 -30 -30 -30 -30 -30 -31 -31 -31 -31 -31 -32 -32 -32 -32 -32 -32 -32 -32 -32 -32 -33 -33 -33 -33 -33 -33 -33 -33 -33 -33 -34 -34 -34 -34 -34 -35
-29 -29 -30 -30 -30 -30 -30 -30 -30 -31 -31 -31 -31 -32 -32 -32 -32 -32 -32 -32 -32 -32 -33 -33 -33 -33 -33 -33 -33 -33 -33 -33 -33 -33 -33 -34 -34 -34 -34 -34 -35 -35
-29 -30 -30 -30 -30 -30 -30 -31 -31 -31 -31 -32 -32 -32 -32 -32 -32 -32 -32 -33 -33 -33 -33 -33 -33 -33 -33 -33 -33 -33 -33 -34 -34 -34 -34 -34 -34 -34 -35 -35 -35 -35
-30 -30 -30 -30 -30 -31 -31 -31 -31 -32 -32 -32 -32 -32 -32 -32 -33 -33 -33 -33 -33 -33 -33 -33 -33 -33 -33 -34 -34 -34 -34 -34 -34 -34 -34 -34 -34 -35 -35 -35 -35 -36
-30 -30 -30 -31 -31 -31 -31 -32 -32 -32 -32 -32 -33 -33 -33 -33 -33 -33 -33 -33 -33 -33 -33 -33 -34 -34 -34 -34 -34 -34 -34 -34 -34 -34 -34 -35 -35 -35 -35 -36 -36 -36
-30 -30 -31 -31 -31 -32 -32 -32 -32 -33 -33 -33 -33 -33 -33 -33 -33 -33 -33 -34 -34 -34 -34 -34 -34 -34 -34 -34 -34 -34 -34 -34 -34 -35 -35 -35 -35 -36 -36 -36 -36 -36
-30 -31 -31 -31 -32 -32 -32 -33 -33 -33 -33 -33 -33 -34 -34 -34 -34 -34 -34 -34 -34 -34 -34 -34 -34 -34 -35 -35 -35 -35 -35 -35 -35 -35 -35 -35 -36 -36 -36 -36 -37 -37
-31 -31 -31 -32 -32 -33 -33 -33 -34 -34 -34 -34 -34 -34 -34 -34 -34 -34 -34 -34 -34 -34 -34 -35 -35 -35 -35 -35 -35 -35 -35 -35 -35 -35 -35 -36 -36 -36 -37 -37 -37 -37
-31 -32 -32 -33 -33 -33 -34 -34 -34 -34 -34 -34 -34 -34 -34 -34 -34 -35 -35 -35 -35 -35 -35 -35 -35 -35 -35 -35 -35 -35 -35 -35 -35 -35 -35 -36 -36 -37 -37 -37 -37 -37
Height
5552 5551 5550 5548 5546 5545 5543 5541 5539 5537 5535 5533 5531 5530 5528 5525 5523 5520 5517 5515 5512 5509 5507 5504 5502 5500 5497 5495 5493 5491 5489 5487 5485 5483 5480 5477 5475 5473 5470 5468 5466 5464
5546 5545 5543 5541 5539 5538 5536 5534 5532 5530 5528 5526 5524 5522 5520 5518 5515 5512 5509 5506 5503 5500 5498 5495 5493 5491 5488 5486 5484 5482 5480 5478 5476 5474 5471 5468 5466 5463 5461 5459 5457 5455
5540 5538 5536 5534 5532 5531 5529 5527 5525 5522 5520 5518 5516 5514 5512 5509 5506 5504 5501 5498 5495 5492 5489 5486 5484 5481 5479 5477 5475 5473 5471 5469 5466 5464 5462 5459 5457 5454 5452 5450 5448 5445
5533 5531 5529 5527 5525 5523 5521 5519 5517 5515 5512 5510 5508 5506 5503 5500 5498 5495 5492 5489 5486 5483 5480 5477 5475 5472 5470 5468 5466 5464 5462 5459 5457 5455 5453 5450 5447 5445 5442 5440 5438 5435
5526 5524 5522 5520 5518 5516 5514 5512 5509 5507 5504 5502 5500 5497 5494 5492 5489 5486 5483 5481 5478 5475 5472 5469 5466 5464 5461 5459 5456 5454 5452 5450 5448 5446 5444 5441 5438 5436 5433 5431 5428 5426
5518 5516 5514 5512 5510 5508 5506 5504 5501 5499 5496 5493 5491 5489 5486 5483 5480 5478 5475 5472 5469 5466 5463 5460 5458 5455 5452 5450 5447 5445 5442 5440 5438 5436 5434 5431 5429 5426 5423 5421 5419 5416
5511 5509 5506 5504 5502 5500 5499 5496 5493 5491 5488 5485 5483 5480 5477 5474 5472 5469 5466 5463 5460 5457 5455 5452 5449 5446 5444 5441 5438 5435 5433 5430 5428 5426 5424 5421 5419 5416 5413 5411 5409 5406
5503 5501 5498 5496 5494 5493 5491 5488 5485 5482 5479 5477 5475 5471 5468 5466 5463 5460 5457 5454 5451 5449 5446 5443 5440 5437 5435 5432 5429 5426 5423 5421 5418 5416 5414 5411 5409 5406 5403 5400 5398 5396
5496 5493 5490 5488 5486 5484 5482 5479 5476 5473 5470 5468 5466 5462 5459 5457 5454 5451 5448 5445 5442 5439 5436 5434 5431 5428 5425 5423 5420 5417 5414 5411 5409 5406 5404 5402 5399 5397 5394 5390 5387 5385
5488 5485 5482 5480 5478 5476 5473 5470 5466 5463 5461 5459 5457 5453 5450 5447 5445 5442 5439 5436 5433 5430 5427 5424 5421 5418 5416 5413 5410 5407 5404 5402 5399 5397 5394 5392 5390 5387 5384 5380 5377 5374
5481 5478 5475 5472 5470 5467 5464 5460 5457 5454 5452 5450 5447 5444 5441 5438 5435 5432 5429 5426 5423 5420 5417 5414 5411 5409 5406 5403 5400 5397 5394 5392 5389 5387 5384 5382 5380 5377 5374 5370 5367 5364
5473 5470 5467 5464 5461 5458 5455 5451 5448 5445 5443 5441 5437 5434 5431 5429 5426 5422 5419 5417 5413 5410 5407 5404 5401 5399 5396 5393 5390 5387 5384 5382 5380 5377 5375 5372 5370 5367 5364 5360 5357 5354
5465 5462 5459 5455 5452 5449 5446 5442 5438 5436 5433 5430 5427 5424 5421 5418 5415 5412 5409 5406 5404 5400 5397 5394 5391 5389 5386 5382 5379 5377 5374 5372 5370 5368 5365 5363 5360 5357 5354 5351 5347 5344
5456 5453 5449 5446 5443 5440 5436 5432 5429 5426 5423 5420 5417 5414 5411 5408 5405 5402 5399 5396 5394 5390 5387 5385 5382 5379 5375 5372 5369 5367 5364 5362 5360 5358 5355 5353 5350 5347 5344 5341 5338 5335
5447 5443 5440 5436 5433 5430 5426 5423 5419 5416 5413 5410 5407 5404 5401 5398 5395 5392 5389 5386 5383 5380 5377 5375 5372 5368 5365 5362 5359 5357 5354 5352 5350 5347 5345 5343 5340 5337 5334 5331 5328 5325
5437 5434 5430 5427 5423 5420 5416 5413 5410 5406 5403 5400 5397 5394 5391 5387 5384 5381 5378 5375 5373 5370 5367 5365 5361 5358 5355 5352 5349 5346 5344 5342 5340 5337 5335 5333 5330 5328 5325 5321 5318 5315
5428 5424 5421 5417 5413 5410 5406 5403 5399 5396 5393 5390 5387 5383 5380 5376 5373 5370 5368 5365 5362 5360 5357 5354 5351 5348 5344 5341 5338 5336 5334 5331 5329 5327 5325 5323 5321 5318 5315 5311 5308 5304
5418 5414 5410 5406 5402 5399 5395 5392 5388 5385 5382 5379 5376 5372 5369 5365 5362 5360 5357 5354 5351 5349 5346 5343 5341 5337 5334 5331 5328 5326 5323 5321 5319 5317 5315 5313 5311 5308 5305 5302 5299 5295
5407 5403 5399 5395 5391 5388 5384 5381 5378 5375 5371 5368 5364 5361 5358 5355 5352 5349 5346 5343 5340 5338 5335 5333 5330 5327 5324 5321 5318 5316 5313 5311 5309 5307 5305 5303 5301 5298 5294 5292 5289 5286
5396 5392 5389 5385 5381 5377 5373 5370 5367 5364 5360 5357 5353 5350 5347 5344 5341 5338 5335 5332 5329 5327 5325 5322 5319 5316 5313 5311 5308 5306 5303 5300 5298 5297 5295 5293 5290 5287 5284 5281 5279 5276
5385 5382 5378 5374 5370 5366 5363 5359 5356 5352 5349 5345 5342 5339 5336 5333 5330 5327 5324 5321 5319 5317 5314 5312 5309 5305 5303 5300 5298 5295 5293 5290 5288 5286 5284 5282 5279 5276 5274 5271 5268 5266
5374 5371 5367 5363 5359 5355 5351 5348 5344 5340 5337 5334 5331 5328 5325 5322 5320 5317 5314 5311 5308 5306 5304 5301 5298 5295 5292 5290 5287 5285 5282 5280 5278 5276 5274 5272 5269 5266 5264 5261 5258 5256
5363 5359 5355 5351 5347 5343 5339 5336 5332 5329 5326 5322 5320 5317 5314 5312 5309 5306 5303 5300 5298 5295 5293 5290 5287 5284 5282 5279 5277 5275 5272 5270 5268 5266 5264 5262 5259 5256 5253 5251 5248 5245
5350 5346 5342 5338 5334 5331 5327 5324 5321 5318 5315 5312 5309 5306 5303 5301 5298 5295 5293 5290 5287 5285 5282 5279 5277 5273 5271 5269 5267 5264 5262 5260 5258 5256 5255 5253 5250 5247 5244 5241 5238 5236
5336 5333 5329 5325 5322 5319 5315 5312 5309 5306 5304 5301 5298 5295 5292 5290 5287 5285 5282 5279 5277 5274 5271 5269 5266 5263 5261 5259 5257 5254 5252 5250 5248 5247 5245 5243 5240 5237 5234 5231 5229 5226
5323 5319 5316 5313 5310 5307 5304 5301 5298 5295 5292 5289 5287 5284 5281 5279 5276 5274 5271 5269 5266 5263 5261 5258 5255 5253 5251 5249 5247 5244 5241 5239 5238 5237 5235 5233 5231 5228 5226 5222 5219 5217
Wind_Speed
52 52 53 53 54 55 55 55 56 57 58 58 59 60 61 63 64 65 65 65 66 65 65 65 65 65 65 65 65 65 65 65 65 65 65 66 66 67 67 68 68 68
52 53 53 54 55 55 55 56 57 57 58 59 61 62 63 64 65 65 66 66 66 66 66 66 66 66 66 66 66 66 66 65 65 65 65 66 67 67 68 68 69 69
52 53 54 55 55 56 56 57 58 59 60 61 63 63 64 65 66 66 67 67 67 67 67 67 67 67 67 67 66 66 66 66 66 66 66 66 67 68 69 69 69 69
53 54 55 55 56 56 57 58 59 61 62 63 64 65 65 66 67 67 67 68 68 68 68 68 68 68 68 67 67 67 67 67 66 66 67 67 68 68 69 70 70 70
54 55 56 57 57 58 59 60 61 62 64 65 65 66 66 67 68 68 68 68 68 68 69 69 69 69 68 68 68 68 68 68 68 68 68 68 69 69 70 70 70 71
56 57 57 58 59 59 60 61 62 64 65 66 66 67 68 68 68 68 68 68 69 69 69 69 69 69 69 70 70 70 70 70 70 70 69 69 70 70 70 71 71 71
57 58 58 59 59 60 61 62 64 65 66 67 67 68 69 69 69 69 69 69 69 69 70 70 70 70 71 71 71 71 71 71 71 71 71 71 71 71 71 71 71 71
57 59 60 60 61 61 62 63 65 66 67 67 67 68 69 69 69 69 70 70 70 70 71 71 71 72 72 72 72 72 72 72 72 72 72 72 71 71 71 72 71 71
58 59 61 62 62 62 63 65 66 68 68 67 68 69 69 70 70 70 71 71 71 72 72 72 73 73 73 73 73 73 73 73 73 72 72 72 72 72 72 71 71 71
59 60 62 63 63 64 65 67 68 69 69 69 69 70 70 71 71 71 72 72 73 73 73 74 74 74 74 74 73 73 73 73 73 73 72 72 72 72 71 71 71 71
60 61 63 64 64 66 67 69 70 71 70 70 71 71 72 72 72 72 73 73 74 74 74 75 75 75 74 74 73 73 73 73 73 73 73 72 72 71 71 70 71 70
61 62 64 65 66 67 68 70 71 72 71 71 72 73 73 73 73 74 74 74 75 75 75 75 76 75 75 74 73 73 73 73 73 73 72 72 71 70 70 70 70 70
62 63 64 66 67 68 70 71 72 72 72 72 73 74 74 74 75 75 75 75 75 76 76 76 76 75 74 74 73 73 73 73 73 72 71 71 70 70 70 70 70 70
62 64 66 67 68 69 71 72 73 73 73 74 74 75 75 75 76 76 76 76 76 76 76 76 75 75 74 73 73 73 73 72 72 72 71 71 70 70 70 69 69 69
64 66 67 69 70 71 72 73 74 74 74 75 75 75 76 76 76 76 76 76 76 76 75 75 74 74 74 73 73 73 73 72 72 72 71 71 71 70 70 69 69 69
66 67 69 70 71 72 73 74 74 74 75 75 75 76 76 76 76 76 76 76 76 75 74 74 73 73 73 73 73 73 73 73 72 72 72 72 71 70 69 69 69 69
67 68 70 71 72 73 74 74 75 75 75 76 76 76 76 76 76 77 76 76 75 74 73 73 73 73 73 73 73 73 73 73 73 73 72 72 71 70 69 68 68 68
69 70 71 73 73 74 75 75 76 76 76 76 76 76 76 76 77 77 76 76 75 73 73 73 73 73 73 73 73 74 74 74 74 73 73 71 70 68 68 67 67 67
72 72 73 74 75 76 76 77 77 77 77 76 76 76 76 77 77 77 76 75 74 73 73 73 73 73 73 73 73 74 74 74 74 73 73 71 70 68 68 68 67 67
74 75 75 76 77 77 77 78 77 77 76 76 76 77 77 77 77 76 75 75 74 74 73 73 73 73 73 73 74 74 74 74 74 73 72 71 70 69 68 68 68 68
77 77 77 78 78 78 78 78 78 77 76 76 77 77 77 77 76 76 75 75 74 74 74 73 73 73 74 74 74 74 74 74 74 73 72 71 70 69 68 68 68 68
79 79 79 79 79 79 78 78 77 77 76 76 77 76 76 76 75 75 75 75 74 74 73 73 73 74 74 74 74 74 75 74 74 73 72 71 69 68 68 68 68 69
80 80 80 80 80 79 78 77 77 76 76 76 76 75 75 75 75 75 74 74 74 73 73 73 74 74 75 75 75 75 75 74 74 73 71 70 68 68 68 68 68 69
82 82 81 81 80 79 77 76 76 75 75 75 74 74 74 74 75 74 74 74 73 73 74 74 75 75 76 76 75 75 74 74 73 71 70 68 67 67 67 67 68 69
84 83 82 80 79 77 76 75 75 74 74 74 74 74 74 74 74 74 74 74 74 74 75 76 76 76 76 75 74 74 73 72 71 69 67 66 65 66 66 67 68 68
84 82 80 79 77 75 74 74 73 73 73 73 74 74 74 74 74 74 74 74 75 76 77 77 77 76 75 74 72 71 71 70 68 67 65 64 64 65 65 66 67 68
Wind_Direction
283 283 284 284 284 285 285 286 286 287 287 288 289 289 290 290 291 291 292 292 293 293 293 293 293 293 293 293 293 293 293 293 293 293 292 292 292 291 291 291 290 290
284 284 284 285 285 286 286 287 287 287 288 288 289 289 290 291 291 292 292 293 293 293 293 293 293 293 293 293 293 293 293 293 293 293 292 292 292 291 291 291 290 290
285 285 285 286 286 286 287 287 287 288 288 289 289 290 290 291 291 292 293 293 293 294 294 294 294 293 293 293 293 293 293 293 292 292 292 292 291 291 291 291 290 290
286 286 286 286 286 287 287 287 288 288 288 289 290 290 291 291 292 293 293 293 293 294 294 294 294 293 293 293 293 292 292 292 291 291 291 291 291 291 291 291 290 290
286 286 286 287 287 287 287 288 288 288 289 290 290 291 291 292 292 293 293 293 293 293 293 293 293 293 293 292 292 292 291 291 291 291 291 291 290 291 290 290 290 290
286 286 287 287 287 288 288 288 288 289 290 290 291 291 292 292 293 293 293 293 293 293 293 293 293 292 292 292 292 292 291 291 291 290 290 290 290 290 290 290 290 290
286 287 287 287 288 288 289 289 289 289 289 290 291 291 291 292 292 292 292 293 292 292 292 292 292 292 292 292 292 292 291 291 290 290 290 290 290 290 290 290 290 290
286 287 288 288 289 289 289 289 289 289 290 290 291 291 291 292 292 292 292 292 292 292 292 291 291 291 291 291 291 291 291 290 290 290 290 290 291 291 291 291 292 292
287 288 289 289 290 291 290 290 290 290 290 291 291 291 291 291 292 292 292 292 291 291 291 291 291 290 290 290 290 290 290 290 290 290 290 291 291 291 292 292 293 293
289 289 289 290 291 291 291 290 290 290 291 292 292 291 291 291 291 291 291 291 291 290 290 290 290 290 290 290 290 290 290 290 290 290 291 291 291 292 293 293 293 293
289 289 290 291 291 291 290 290 290 291 292 292 292 291 291 291 291 291 291 291 290 290 290 290 289 290 290 290 290 290 290 290 291 291 291 292 292 293 294 294 294 294
290 290 290 290 290 290 290 290 290 291 292 292 292 291 292 292 291 291 290 290 290 289 289 289 289 290 290 290 290 290 290 291 291 292 292 293 293 294 294 295 294 294
290 290 290 290 289 290 290 290 291 292 292 292 292 292 292 292 291 290 290 289 289 289 289 289 289 289 290 290 290 291 291 291 292 292 293 294 294 295 295 295 294 294
291 290 290 290 290 290 291 291 292 292 292 292 292 292 291 291 290 289 289 289 288 288 288 289 289 290 290 290 290 291 291 292 292 293 294 294 295 295 295 294 294 293
291 291 291 291 291 291 291 292 292 292 292 291 291 291 290 289 289 288 288 288 288 288 289 289 290 290 290 290 291 291 292 292 293 294 295 295 295 295 295 294 293 292
291 291 292 292 292 291 291 291 291 291 291 290 290 290 289 288 288 288 288 288 289 289 290 290 290 291 291 291 291 292 292 293 294 294 295 295 295 295 294 293 293 292
292 292 292 292 291 291 291 291 291 290 290 290 290 289 288 288 288 288 289 289 290 291 291 291 291 291 291 291 292 292 293 294 294 294 294 294 294 294 294 293 292 292
292 292 292 292 292 291 291 291 291 290 290 290 289 289 288 288 288 289 290 290 291 291 291 291 291 291 291 292 292 293 293 293 293 293 293 294 294 293 293 292 292 291
293 293 293 292 292 292 291 291 291 291 290 290 289 289 289 289 289 290 291 291 291 291 291 291 291 291 292 292 292 293 293 293 293 293 293 294 294 293 293 292 291 291
293 293 293 292 292 292 291 291 291 291 290 290 289 289 289 290 290 290 291 291 291 291 291 291 291 292 292 292 292 292 292 292 293 293 294 294 294 293 292 292 291 290
294 293 293 292 292 291 291 291 290 290 290 289 289 289 289 289 290 290 290 290 290 291 291 291 291 291 291 291 292 292 292 292 293 294 294 294 293 292 292 291 290 290
293 293 292 292 291 291 291 290 290 290 289 289 289 289 289 289 289 289 289 289 290 290 291 291 291 291 291 291 291 291 292 292 293 293 293 293 292 291 291 290 290 290
292 292 291 291 291 291 291 290 290 289 289 288 288 288 288 288 288 288 289 289 290 290 290 290 290 290 290 291 291 291 292 292 292 292 292 291 291 290 290 289 290 290
292 292 291 291 291 291 290 289 289 288 288 288 287 287 287 287 288 288 289 289 290 290 290 290 290 290 290 290 291 291 291 291 291 291 290 290 289 289 289 289 290 290
292 292 291 291 290 290 289 288 288 287 287 286 286 286 286 287 287 288 288 289 289 289 289 289 289 289 289 289 290 290 290 290 289 289 289 289 289 289 289 289 290 290
292 291 291 290 289 289 288 287 287 286 286 285 285 286 286 286 287 287 287 288 288 288 288 288 288 288 288 289 289 289 289 288 288 289 289 288 288 288 288 289 289 289